TimeAKDT,TemperatureF,Dew PointF,Humidity,Sea Level PressureIn,VisibilityMPH,Wind Direction,Wind SpeedMPH,Gust SpeedMPH,PrecipitationIn,Events,Conditions,WindDirDegrees,DateUTC
12:53 AM,44.1,35.1,71,29.11,10.0,Variable,6.9,18.4,0.01,Rain,Light Rain,0,2011-10-28 08:53:00
1:53 AM,45.0,35.1,68,29.05,10.0,Variable,3.5,-,0.00,,Overcast,0,2011-10-28 09:53:00
2:53 AM,44.1,36.0,73,28.99,10.0,Variable,3.5,-,0.00,,Overcast,0,2011-10-28 10:53:00
3:53 AM,44.1,35.1,71,28.94,10.0,Variable,4.6,-,0.00,Rain,Light Rain,0,2011-10-28 11:53:00
4:18 AM,44.6,35.6,71,28.92,10.0,North,12.7,25.3,0.00,Rain,Light Rain,350,2011-10-28 12:18:00
4:53 AM,45.0,35.1,68,28.92,10.0,North,13.8,21.9,0.00,,Overcast,350,2011-10-28 12:53:00
5:53 AM,44.1,34.0,68,28.93,10.0,NNW,18.4,25.3,N/A,,Overcast,340,2011-10-28 13:53:00
6:53 AM,43.0,35.1,74,28.95,10.0,North,9.2,-,N/A,,Overcast,10,2011-10-28 14:53:00
7:53 AM,44.1,35.1,71,28.97,10.0,WSW,4.6,-,N/A,,Overcast,240,2011-10-28 15:53:00
8:53 AM,43.0,36.0,76,29.01,10.0,NNW,8.1,-,N/A,,Overcast,340,2011-10-28 16:53:00
9:53 AM,43.0,37.0,80,29.06,10.0,NNW,19.6,-,N/A,,Overcast,330,2011-10-28 17:53:00
10:53 AM,43.0,37.0,80,29.12,10.0,NNW,18.4,-,N/A,,Overcast,340,2011-10-28 18:53:00
11:53 AM,44.1,37.9,79,29.18,10.0,NNW,13.8,-,N/A,,Overcast,330,2011-10-28 19:53:00
12:53 PM,43.0,39.9,89,29.25,9.0,NW,12.7,-,0.01,Rain,Light Rain,310,2011-10-28 20:53:00
1:53 PM,44.1,37.9,79,29.31,10.0,WNW,5.8,-,0.00,,Mostly Cloudy,290,2011-10-28 21:53:00
2:53 PM,45.0,37.0,74,29.36,10.0,Calm,Calm,-,N/A,,Overcast,0,2011-10-28 22:53:00
3:21 PM,44.6,37.4,76,29.38,10.0,Calm,Calm,-,0.00,Rain,Light Rain,0,2011-10-28 23:21:00
3:53 PM,44.1,39.0,82,29.40,10.0,NE,4.6,-,0.00,,Mostly Cloudy,50,2011-10-28 23:53:00
4:23 PM,44.6,39.2,81,29.42,10.0,Calm,Calm,-,N/A,,Overcast,0,2011-10-29 00:23:00
4:46 PM,44.6,39.2,81,29.43,10.0,ESE,4.6,-,0.00,Rain,Light Rain,120,2011-10-29 00:46:00
4:53 PM,44.1,39.9,85,29.44,10.0,SSE,4.6,-,0.00,Rain,Light Rain,150,2011-10-29 00:53:00
5:45 PM,44.6,39.2,81,29.47,10.0,Calm,Calm,-,0.03,Rain,Light Rain,0,2011-10-29 01:45:00
5:53 PM,43.0,39.9,89,29.47,10.0,NE,3.5,-,0.03,Rain,Light Rain,50,2011-10-29 01:53:00
6:14 PM,42.8,39.2,87,29.47,10.0,East,8.1,-,0.00,,Overcast,80,2011-10-29 02:14:00
6:22 PM,42.8,39.2,87,29.47,6.0,ENE,8.1,-,0.01,Rain,Rain,70,2011-10-29 02:22:00
6:53 PM,43.0,41.0,93,29.49,5.0,ESE,11.5,-,0.03,Rain,Light Rain,110,2011-10-29 02:53:00
7:53 PM,43.0,41.0,93,29.50,10.0,ESE,8.1,-,0.01,,Overcast,110,2011-10-29 03:53:00
8:13 PM,44.6,41.0,87,29.51,10.0,ESE,11.5,-,0.00,Rain,Light Rain,120,2011-10-29 04:13:00
8:53 PM,45.0,41.0,86,29.52,9.0,ESE,8.1,-,0.00,,Overcast,120,2011-10-29 04:53:00
9:01 PM,44.6,41.0,87,29.52,10.0,ESE,8.1,-,N/A,,Overcast,110,2011-10-29 05:01:00
9:53 PM,44.1,41.0,89,29.54,10.0,East,9.2,-,0.00,,Overcast,100,2011-10-29 05:53:00
10:53 PM,44.1,42.1,93,29.54,4.0,Calm,Calm,-,0.07,Rain,Light Rain,0,2011-10-29 06:53:00
11:22 PM,44.6,41.0,87,29.55,5.0,ESE,9.2,-,0.08,Rain,Light Rain,120,2011-10-29 07:22:00
11:50 PM,44.6,42.8,93,29.55,8.0,SSE,12.7,19.6,0.12,Rain,Light Rain,150,2011-10-29 07:50:00
11:53 PM,45.0,42.1,90,29.55,10.0,ESE,9.2,19.6,0.12,Rain,Light Rain,110,2011-10-29 07:53:00